Time,TemperatureF,DewpointF,PressureIn,WindDirection,WindDirectionDegrees,WindSpeedMPH,WindSpeedGustMPH,Humidity,HourlyPrecipIn,Conditions,Clouds,dailyrainin,SoftwareType,DateUTC
2013-04-24 00:00:00,39.0,39.0,30.20,SW,225,1.0,4.0,100,0.01,,,0.00,Weather View 32 v70,2013-04-24 04:00:00,
2013-04-24 00:04:00,39.0,39.0,30.20,WSW,248,1.0,4.0,100,0.00,,,0.00,Weather View 32 v70,2013-04-24 04:04:00,
2013-04-24 00:09:00,39.0,39.0,30.20,West,270,1.0,4.0,100,0.00,,,0.00,Weather View 32 v70,2013-04-24 04:09:00,
2013-04-24 00:14:00,39.0,39.0,30.19,WNW,292,1.0,4.0,100,0.00,,,0.00,Weather View 32 v70,2013-04-24 04:14:00,
2013-04-24 00:19:00,39.0,39.0,30.19,West,270,1.0,4.0,100,0.00,,,0.00,Weather View 32 v70,2013-04-24 04:19:00,
2013-04-24 00:25:00,39.0,39.0,30.18,WNW,292,3.0,4.0,100,0.00,,,0.00,Weather View 32 v70,2013-04-24 04:25:00,
2013-04-24 00:29:00,39.0,39.0,30.18,WSW,248,0.0,4.0,100,0.00,,,0.00,Weather View 32 v70,2013-04-24 04:29:00,
2013-04-24 00:39:00,39.0,39.0,30.17,WNW,292,3.0,4.0,100,0.00,,,0.00,Weather View 32 v70,2013-04-24 04:39:00,
2013-04-24 00:44:00,39.0,39.0,30.17,WNW,292,0.0,4.0,100,0.00,,,0.00,Weather View 32 v70,2013-04-24 04:44:00,
2013-04-24 00:54:00,39.0,39.0,30.16,WNW,292,1.0,4.0,100,0.00,,,0.00,Weather View 32 v70,2013-04-24 04:54:00,
2013-04-24 01:00:00,39.0,39.0,30.15,WNW,292,0.0,4.0,100,0.00,,,0.00,Weather View 32 v70,2013-04-24 05:00:00,
2013-04-24 01:09:00,39.0,39.0,30.15,WNW,292,1.0,4.0,100,0.00,,,0.00,Weather View 32 v70,2013-04-24 05:09:00,
2013-04-24 01:20:00,39.0,39.0,30.14,WNW,292,1.0,4.0,100,0.00,,,0.00,Weather View 32 v70,2013-04-24 05:20:00,
2013-04-24 01:29:00,39.0,39.0,30.13,South,180,1.0,4.0,100,0.00,,,0.00,Weather View 32 v70,2013-04-24 05:29:00,
2013-04-24 01:40:00,39.0,39.0,30.12,West,270,1.0,4.0,100,0.00,,,0.00,Weather View 32 v70,2013-04-24 05:40:00,
2013-04-24 01:50:00,39.0,39.0,30.11,WSW,248,1.0,4.0,100,0.00,,,0.00,Weather View 32 v70,2013-04-24 05:50:00,
2013-04-24 01:59:00,39.0,39.0,30.11,West,270,1.0,4.0,100,0.00,,,0.00,Weather View 32 v70,2013-04-24 05:59:00,
2013-04-24 02:10:00,39.0,39.0,30.10,WNW,292,1.0,4.0,100,0.00,,,0.00,Weather View 32 v70,2013-04-24 06:10:00,
2013-04-24 02:19:00,39.0,39.0,30.10,West,270,1.0,5.0,100,0.00,,,0.00,Weather View 32 v70,2013-04-24 06:19:00,
2013-04-24 02:30:00,39.0,39.0,30.09,WNW,292,1.0,5.0,100,0.01,,,0.01,Weather View 32 v70,2013-04-24 06:30:00,
2013-04-24 02:39:00,40.0,40.0,30.09,South,180,1.0,6.0,100,0.01,,,0.01,Weather View 32 v70,2013-04-24 06:39:00,
2013-04-24 02:44:00,40.0,40.0,30.08,West,270,2.0,6.0,100,0.01,,,0.01,Weather View 32 v70,2013-04-24 06:44:00,
2013-04-24 02:54:00,40.0,40.0,30.08,West,270,2.0,6.0,100,0.01,,,0.01,Weather View 32 v70,2013-04-24 06:54:00,
2013-04-24 03:00:00,40.0,40.0,30.08,SW,225,1.0,6.0,100,0.01,,,0.01,Weather View 32 v70,2013-04-24 07:00:00,
2013-04-24 03:09:00,40.0,40.0,30.08,SSE,158,0.0,6.0,100,0.01,,,0.01,Weather View 32 v70,2013-04-24 07:09:00,
2013-04-24 03:19:00,40.0,40.0,30.07,WNW,292,2.0,6.0,100,0.01,,,0.01,Weather View 32 v70,2013-04-24 07:19:00,
2013-04-24 03:24:00,40.0,40.0,30.07,SSW,202,0.0,6.0,100,0.01,,,0.01,Weather View 32 v70,2013-04-24 07:24:00,
2013-04-24 03:34:00,40.0,40.0,30.07,WNW,292,1.0,7.0,100,0.00,,,0.01,Weather View 32 v70,2013-04-24 07:34:00,
2013-04-24 03:40:00,40.0,40.0,30.06,WNW,292,2.0,7.0,100,0.00,,,0.01,Weather View 32 v70,2013-04-24 07:40:00,
2013-04-24 03:49:00,40.0,40.0,30.06,West,270,2.0,7.0,100,0.00,,,0.01,Weather View 32 v70,2013-04-24 07:49:00,
2013-04-24 03:55:00,40.0,40.0,30.06,WNW,292,2.0,7.0,100,0.00,,,0.01,Weather View 32 v70,2013-04-24 07:55:00,
2013-04-24 04:04:00,40.0,40.0,30.06,SSW,202,1.0,7.0,100,0.00,,,0.01,Weather View 32 v70,2013-04-24 08:04:00,
2013-04-24 04:14:00,40.0,40.0,30.05,WNW,292,1.0,7.0,100,0.00,,,0.01,Weather View 32 v70,2013-04-24 08:14:00,
2013-04-24 04:24:00,40.0,40.0,30.05,WNW,292,3.0,7.0,100,0.00,,,0.01,Weather View 32 v70,2013-04-24 08:24:00,
2013-04-24 04:35:00,40.0,40.0,30.05,WNW,292,2.0,8.0,100,0.00,,,0.01,Weather View 32 v70,2013-04-24 08:35:00,
2013-04-24 04:44:00,40.0,40.0,30.05,West,270,1.0,8.0,100,0.00,,,0.01,Weather View 32 v70,2013-04-24 08:44:00,
2013-04-24 04:50:00,40.0,40.0,30.04,WNW,292,1.0,8.0,100,0.00,,,0.01,Weather View 32 v70,2013-04-24 08:50:00,
2013-04-24 04:59:00,40.0,40.0,30.04,West,270,1.0,8.0,100,0.00,,,0.01,Weather View 32 v70,2013-04-24 08:59:00,
2013-04-24 05:05:00,41.0,41.0,30.04,WNW,292,2.0,8.0,100,0.00,,,0.01,Weather View 32 v70,2013-04-24 09:05:00,
2013-04-24 05:14:00,41.0,41.0,30.04,SSE,158,1.0,8.0,100,0.00,,,0.01,Weather View 32 v70,2013-04-24 09:14:00,
2013-04-24 05:19:00,41.0,41.0,30.04,WSW,248,1.0,8.0,100,0.00,,,0.01,Weather View 32 v70,2013-04-24 09:19:00,
2013-04-24 05:24:00,41.0,41.0,30.04,SW,225,1.0,8.0,100,0.00,,,0.01,Weather View 32 v70,2013-04-24 09:24:00,
2013-04-24 05:30:00,41.0,41.0,30.04,West,270,1.0,8.0,100,0.00,,,0.01,Weather View 32 v70,2013-04-24 09:30:00,
2013-04-24 05:40:00,41.0,41.0,30.04,WSW,248,1.0,6.0,100,0.00,,,0.01,Weather View 32 v70,2013-04-24 09:40:00,
2013-04-24 05:45:00,41.0,41.0,30.05,West,270,3.0,6.0,100,0.00,,,0.01,Weather View 32 v70,2013-04-24 09:45:00,
2013-04-24 05:54:00,41.0,41.0,30.04,West,270,1.0,6.0,100,0.00,,,0.01,Weather View 32 v70,2013-04-24 09:54:00,
2013-04-24 05:59:00,41.0,41.0,30.04,WNW,292,1.0,6.0,100,0.00,,,0.01,Weather View 32 v70,2013-04-24 09:59:00,
2013-04-24 06:09:00,41.0,41.0,30.04,SSW,202,1.0,6.0,100,0.00,,,0.01,Weather View 32 v70,2013-04-24 10:09:00,
2013-04-24 06:15:00,41.0,41.0,30.04,WNW,292,3.0,6.0,100,0.00,,,0.01,Weather View 32 v70,2013-04-24 10:15:00,
2013-04-24 06:24:00,41.0,41.0,30.04,South,180,1.0,6.0,100,0.00,,,0.01,Weather View 32 v70,2013-04-24 10:24:00,
2013-04-24 06:29:00,41.0,41.0,30.03,SW,225,0.0,6.0,100,0.00,,,0.01,Weather View 32 v70,2013-04-24 10:29:00,
2013-04-24 06:39:00,42.0,42.0,30.03,WSW,248,1.0,6.0,100,0.00,,,0.01,Weather View 32 v70,2013-04-24 10:39:00,
2013-04-24 06:44:00,42.0,42.0,30.04,WNW,292,1.0,6.0,100,0.00,,,0.01,Weather View 32 v70,2013-04-24 10:44:00,
2013-04-24 06:49:00,42.0,42.0,30.04,WNW,292,1.0,6.0,100,0.00,,,0.01,Weather View 32 v70,2013-04-24 10:49:00,
2013-04-24 06:59:00,42.0,42.0,30.04,SW,225,1.0,6.0,100,0.00,,,0.01,Weather View 32 v70,2013-04-24 10:59:00,
2013-04-24 07:05:00,42.0,42.0,30.04,SSE,158,1.0,6.0,100,0.00,,,0.01,Weather View 32 v70,2013-04-24 11:05:00,
2013-04-24 07:09:00,42.0,42.0,30.03,SW,225,0.0,6.0,100,0.00,,,0.01,Weather View 32 v70,2013-04-24 11:09:00,
2013-04-24 07:19:00,42.0,42.0,30.03,SSE,158,3.0,5.0,100,0.00,,,0.01,Weather View 32 v70,2013-04-24 11:19:00,
2013-04-24 07:24:00,42.0,42.0,30.03,SSW,202,2.0,4.0,100,0.00,,,0.01,Weather View 32 v70,2013-04-24 11:24:00,
2013-04-24 07:34:00,42.0,42.0,30.03,WSW,248,1.0,4.0,100,0.00,,,0.01,Weather View 32 v70,2013-04-24 11:34:00,
2013-04-24 07:39:00,42.0,42.0,30.03,SSW,202,1.0,4.0,100,0.00,,,0.01,Weather View 32 v70,2013-04-24 11:39:00,
2013-04-24 07:46:00,42.0,42.0,30.03,SE,135,1.0,4.0,100,0.00,,,0.01,Weather View 32 v70,2013-04-24 11:46:00,
2013-04-24 07:54:00,42.0,42.0,30.02,WSW,248,1.0,4.0,100,0.00,,,0.01,Weather View 32 v70,2013-04-24 11:54:00,
2013-04-24 07:59:00,42.0,42.0,30.02,WSW,248,1.0,3.0,100,0.00,,,0.01,Weather View 32 v70,2013-04-24 11:59:00,
2013-04-24 08:09:00,43.0,43.0,30.02,West,270,1.0,3.0,100,0.00,,,0.01,Weather View 32 v70,2013-04-24 12:09:00,
2013-04-24 08:15:00,43.0,43.0,30.02,WNW,292,3.0,3.0,100,0.00,,,0.01,Weather View 32 v70,2013-04-24 12:15:00,
2013-04-24 08:19:00,43.0,43.0,30.02,WNW,292,1.0,3.0,100,0.00,,,0.01,Weather View 32 v70,2013-04-24 12:19:00,
2013-04-24 08:29:00,43.0,43.0,30.02,West,270,1.0,3.0,100,0.00,,,0.01,Weather View 32 v70,2013-04-24 12:29:00,
2013-04-24 08:34:00,44.0,44.0,30.01,WSW,248,1.0,3.0,100,0.00,,,0.01,Weather View 32 v70,2013-04-24 12:34:00,
2013-04-24 08:45:00,45.0,45.0,30.01,SSE,158,1.0,3.0,100,0.00,,,0.01,Weather View 32 v70,2013-04-24 12:45:00,
2013-04-24 08:54:00,46.0,46.0,30.01,South,180,1.0,3.0,100,0.00,,,0.01,Weather View 32 v70,2013-04-24 12:54:00,
2013-04-24 09:00:00,46.0,46.0,30.00,SW,225,1.0,3.0,100,0.00,,,0.01,Weather View 32 v70,2013-04-24 13:00:00,
2013-04-24 09:09:00,47.0,46.7,30.00,WSW,248,0.0,5.0,99,0.00,,,0.01,Weather View 32 v70,2013-04-24 13:09:00,
2013-04-24 09:19:00,48.0,47.5,30.00,West,270,3.0,5.0,98,0.00,,,0.01,Weather View 32 v70,2013-04-24 13:19:00,
2013-04-24 09:25:00,49.0,48.2,30.00,SW,225,2.0,5.0,97,0.00,,,0.01,Weather View 32 v70,2013-04-24 13:25:00,
2013-04-24 09:34:00,51.0,47.9,29.99,SSE,158,4.0,5.0,89,0.00,,,0.01,Weather View 32 v70,2013-04-24 13:34:00,
2013-04-24 09:44:00,51.0,47.3,29.98,SW,225,2.0,6.0,87,0.00,,,0.01,Weather View 32 v70,2013-04-24 13:44:00,
2013-04-24 09:49:00,51.0,46.6,29.98,SSW,202,3.0,6.0,85,0.00,,,0.01,Weather View 32 v70,2013-04-24 13:49:00,
2013-04-24 09:59:00,51.0,46.6,29.98,WSW,248,1.0,6.0,85,0.00,,,0.01,Weather View 32 v70,2013-04-24 13:59:00,
2013-04-24 10:05:00,51.0,46.6,29.98,SW,225,0.0,6.0,85,0.00,,,0.01,Weather View 32 v70,2013-04-24 14:05:00,
2013-04-24 10:14:00,52.0,47.0,29.97,SE,135,1.0,8.0,83,0.00,,,0.01,Weather View 32 v70,2013-04-24 14:14:00,
2013-04-24 10:24:00,53.0,47.6,29.96,SE,135,2.0,8.0,82,0.00,,,0.01,Weather View 32 v70,2013-04-24 14:24:00,
2013-04-24 10:30:00,53.0,47.3,29.96,SW,225,3.0,8.0,81,0.00,,,0.01,Weather View 32 v70,2013-04-24 14:30:00,
2013-04-24 10:34:00,53.0,47.0,29.95,WSW,248,4.0,8.0,80,0.00,,,0.01,Weather View 32 v70,2013-04-24 14:34:00,
2013-04-24 10:44:00,54.0,48.0,29.95,WNW,292,1.0,8.0,80,0.00,,,0.01,Weather View 32 v70,2013-04-24 14:44:00,
2013-04-24 10:49:00,54.0,47.3,29.95,West,270,2.0,8.0,78,0.00,,,0.01,Weather View 32 v70,2013-04-24 14:49:00,
2013-04-24 10:59:00,55.0,47.9,29.94,SW,225,3.0,10.0,77,0.00,,,0.01,Weather View 32 v70,2013-04-24 14:59:00,
2013-04-24 11:05:00,55.0,47.6,29.94,SSE,158,5.0,10.0,76,0.00,,,0.01,Weather View 32 v70,2013-04-24 15:05:00,
2013-04-24 11:14:00,56.0,48.9,29.94,West,270,1.0,10.0,77,0.00,,,0.01,Weather View 32 v70,2013-04-24 15:14:00,
2013-04-24 11:19:00,56.0,48.5,29.93,WNW,292,0.0,10.0,76,0.00,,,0.01,Weather View 32 v70,2013-04-24 15:19:00,
2013-04-24 11:30:00,57.0,48.8,29.93,West,270,3.0,10.0,74,0.00,,,0.01,Weather View 32 v70,2013-04-24 15:30:00,
2013-04-24 11:39:00,57.0,48.8,29.93,SE,135,1.0,10.0,74,0.00,,,0.01,Weather View 32 v70,2013-04-24 15:39:00,
2013-04-24 11:48:00,58.0,49.7,29.93,West,270,3.0,10.0,74,0.00,,,0.01,Weather View 32 v70,2013-04-24 15:48:00,
2013-04-24 11:54:00,57.0,48.8,29.92,SSW,202,1.0,10.0,74,0.00,,,0.01,Weather View 32 v70,2013-04-24 15:54:00,
2013-04-24 12:04:00,57.0,48.4,29.91,SE,135,3.0,7.0,73,0.00,,,0.01,Weather View 32 v70,2013-04-24 16:04:00,
2013-04-24 12:10:00,56.0,47.4,29.91,SE,135,3.0,7.0,73,0.00,,,0.01,Weather View 32 v70,2013-04-24 16:10:00,
2013-04-24 12:14:00,55.0,47.6,29.91,SSE,158,3.0,7.0,76,0.00,,,0.01,Weather View 32 v70,2013-04-24 16:14:00,
2013-04-24 12:24:00,55.0,48.3,29.91,SSE,158,2.0,7.0,78,0.00,,,0.01,Weather View 32 v70,2013-04-24 16:24:00,
2013-04-24 12:29:00,56.0,49.2,29.91,SE,135,1.0,7.0,78,0.00,,,0.01,Weather View 32 v70,2013-04-24 16:29:00,
2013-04-24 12:34:00,57.0,49.8,29.91,South,180,1.0,6.0,77,0.00,,,0.01,Weather View 32 v70,2013-04-24 16:34:00,
2013-04-24 12:39:00,58.0,50.5,29.90,SE,135,3.0,6.0,76,0.00,,,0.01,Weather View 32 v70,2013-04-24 16:39:00,
2013-04-24 12:44:00,59.0,50.7,29.90,SE,135,1.0,6.0,74,0.00,,,0.01,Weather View 32 v70,2013-04-24 16:44:00,
2013-04-24 12:50:00,59.0,49.6,29.90,SSE,158,3.0,6.0,71,0.00,,,0.01,Weather View 32 v70,2013-04-24 16:50:00,
2013-04-24 12:59:00,60.0,50.5,29.89,SSE,158,2.0,6.0,71,0.00,,,0.01,Weather View 32 v70,2013-04-24 16:59:00,
2013-04-24 13:09:00,61.0,51.1,29.88,SE,135,1.0,6.0,70,0.00,,,0.01,Weather View 32 v70,2013-04-24 17:09:00,
2013-04-24 13:15:00,61.0,50.7,29.88,South,180,3.0,6.0,69,0.00,,,0.01,Weather View 32 v70,2013-04-24 17:15:00,
2013-04-24 13:24:00,63.0,52.2,29.87,SE,135,3.0,5.0,68,0.00,,,0.01,Weather View 32 v70,2013-04-24 17:24:00,
2013-04-24 13:34:00,62.0,50.9,29.87,SSE,158,2.0,5.0,67,0.00,,,0.01,Weather View 32 v70,2013-04-24 17:34:00,
2013-04-24 13:40:00,63.0,51.4,29.87,South,180,3.0,5.0,66,0.00,,,0.01,Weather View 32 v70,2013-04-24 17:40:00,
2013-04-24 13:49:00,63.0,51.8,29.86,SSE,158,3.0,5.0,67,0.00,,,0.01,Weather View 32 v70,2013-04-24 17:49:00,
2013-04-24 13:54:00,64.0,52.8,29.86,SSE,158,1.0,5.0,67,0.00,,,0.01,Weather View 32 v70,2013-04-24 17:54:00,
2013-04-24 13:59:00,65.0,53.7,29.86,SSE,158,3.0,5.0,67,0.00,,,0.01,Weather View 32 v70,2013-04-24 17:59:00,
2013-04-24 14:09:00,65.0,52.5,29.85,South,180,1.0,5.0,64,0.00,,,0.01,Weather View 32 v70,2013-04-24 18:09:00,
2013-04-24 14:15:00,66.0,53.4,29.85,South,180,3.0,5.0,64,0.00,,,0.01,Weather View 32 v70,2013-04-24 18:15:00,
2013-04-24 14:20:00,66.0,53.4,29.85,WSW,248,1.0,5.0,64,0.00,,,0.01,Weather View 32 v70,2013-04-24 18:20:00,
2013-04-24 14:29:00,66.0,53.0,29.84,SE,135,1.0,5.0,63,0.00,,,0.01,Weather View 32 v70,2013-04-24 18:29:00,
2013-04-24 14:39:00,66.0,53.4,29.83,SE,135,3.0,5.0,64,0.00,,,0.01,Weather View 32 v70,2013-04-24 18:39:00,
2013-04-24 14:45:00,66.0,53.0,29.83,SE,135,2.0,5.0,63,0.00,,,0.01,Weather View 32 v70,2013-04-24 18:45:00,
2013-04-24 14:50:00,66.0,52.6,29.82,South,180,3.0,5.0,62,0.00,,,0.01,Weather View 32 v70,2013-04-24 18:50:00,
2013-04-24 15:00:00,66.0,52.6,29.82,SSE,158,3.0,5.0,62,0.00,,,0.01,Weather View 32 v70,2013-04-24 19:00:00,
2013-04-24 15:09:00,66.0,52.6,29.81,SW,225,1.0,5.0,62,0.00,,,0.01,Weather View 32 v70,2013-04-24 19:09:00,
2013-04-24 15:20:00,67.0,53.1,29.81,SSE,158,3.0,6.0,61,0.00,,,0.01,Weather View 32 v70,2013-04-24 19:20:00,
2013-04-24 15:29:00,68.0,53.6,29.81,SSE,158,1.0,6.0,60,0.00,,,0.01,Weather View 32 v70,2013-04-24 19:29:00,
2013-04-24 15:34:00,68.0,53.1,29.81,SE,135,3.0,6.0,59,0.00,,,0.01,Weather View 32 v70,2013-04-24 19:34:00,
2013-04-24 15:40:00,67.0,51.7,29.81,WNW,292,1.0,6.0,58,0.00,,,0.01,Weather View 32 v70,2013-04-24 19:40:00,
2013-04-24 15:49:00,68.0,51.7,29.81,South,180,2.0,6.0,56,0.00,,,0.01,Weather View 32 v70,2013-04-24 19:49:00,
2013-04-24 16:00:00,68.0,51.7,29.81,SE,135,3.0,6.0,56,0.00,,,0.01,Weather View 32 v70,2013-04-24 20:00:00,
2013-04-24 16:09:00,69.0,52.1,29.81,SE,135,2.0,6.0,55,0.00,,,0.01,Weather View 32 v70,2013-04-24 20:09:00,
2013-04-24 16:20:00,69.0,52.1,29.80,SW,225,1.0,7.0,55,0.00,,,0.01,Weather View 32 v70,2013-04-24 20:20:00,
2013-04-24 16:29:00,69.0,52.1,29.80,West,270,2.0,7.0,55,0.00,,,0.01,Weather View 32 v70,2013-04-24 20:29:00,
2013-04-24 16:34:00,70.0,49.9,29.80,SE,135,4.0,10.0,49,0.00,,,0.01,Weather View 32 v70,2013-04-24 20:34:00,
2013-04-24 16:39:00,70.0,47.0,29.81,South,180,6.0,10.0,44,0.00,,,0.01,Weather View 32 v70,2013-04-24 20:39:00,
2013-04-24 16:50:00,71.0,46.0,29.80,South,180,9.0,14.0,41,0.00,,,0.01,Weather View 32 v70,2013-04-24 20:50:00,
2013-04-24 17:00:00,72.0,46.9,29.80,South,180,6.0,14.0,41,0.00,,,0.01,Weather View 32 v70,2013-04-24 21:00:00,
2013-04-24 17:09:00,72.0,48.2,29.80,SSE,158,3.0,14.0,43,0.00,,,0.01,Weather View 32 v70,2013-04-24 21:09:00,
2013-04-24 17:14:00,72.0,47.6,29.80,SSE,158,3.0,14.0,42,0.00,,,0.01,Weather View 32 v70,2013-04-24 21:14:00,
2013-04-24 17:25:00,72.0,47.6,29.80,South,180,5.0,14.0,42,0.00,,,0.01,Weather View 32 v70,2013-04-24 21:25:00,
2013-04-24 17:29:00,72.0,47.6,29.79,SW,225,4.0,14.0,42,0.00,,,0.01,Weather View 32 v70,2013-04-24 21:29:00,
2013-04-24 17:39:00,72.0,48.2,29.79,South,180,3.0,14.0,43,0.00,,,0.01,Weather View 32 v70,2013-04-24 21:39:00,
2013-04-24 17:49:00,71.0,48.5,29.79,South,180,2.0,14.0,45,0.00,,,0.01,Weather View 32 v70,2013-04-24 21:49:00,
2013-04-24 17:54:00,70.0,48.8,29.79,SE,135,1.0,14.0,47,0.00,,,0.01,Weather View 32 v70,2013-04-24 21:54:00,
2013-04-24 18:04:00,68.0,48.1,29.78,SE,135,5.0,14.0,49,0.00,,,0.01,Weather View 32 v70,2013-04-24 22:04:00,
2013-04-24 18:10:00,68.0,45.8,29.78,South,180,3.0,14.0,45,0.00,,,0.01,Weather View 32 v70,2013-04-24 22:10:00,
2013-04-24 18:19:00,69.0,45.5,29.79,SE,135,1.0,14.0,43,0.00,,,0.01,Weather View 32 v70,2013-04-24 22:19:00,
2013-04-24 18:24:00,68.0,45.8,29.78,SW,225,2.0,14.0,45,0.00,,,0.01,Weather View 32 v70,2013-04-24 22:24:00,
2013-04-24 18:35:00,66.0,50.8,29.79,SSE,158,3.0,10.0,58,0.00,,,0.01,Weather View 32 v70,2013-04-24 22:35:00,
2013-04-24 18:39:00,65.0,50.7,29.79,South,180,5.0,10.0,60,0.00,,,0.01,Weather View 32 v70,2013-04-24 22:39:00,
2013-04-24 18:49:00,63.0,51.0,29.80,South,180,3.0,10.0,65,0.00,,,0.01,Weather View 32 v70,2013-04-24 22:49:00,
2013-04-24 18:54:00,63.0,51.4,29.80,South,180,4.0,10.0,66,0.00,,,0.01,Weather View 32 v70,2013-04-24 22:54:00,
2013-04-24 18:59:00,63.0,51.8,29.80,SSW,202,3.0,10.0,67,0.00,,,0.01,Weather View 32 v70,2013-04-24 22:59:00,
2013-04-24 19:09:00,63.0,51.8,29.80,SW,225,1.0,10.0,67,0.00,,,0.01,Weather View 32 v70,2013-04-24 23:09:00,
2013-04-24 19:15:00,62.0,51.3,29.81,South,180,1.0,10.0,68,0.00,,,0.01,Weather View 32 v70,2013-04-24 23:15:00,
2013-04-24 19:24:00,62.0,52.1,29.81,SW,225,1.0,10.0,70,0.00,,,0.01,Weather View 32 v70,2013-04-24 23:24:00,
2013-04-24 19:29:00,61.0,51.1,29.80,WSW,248,1.0,8.0,70,0.00,,,0.01,Weather View 32 v70,2013-04-24 23:29:00,
2013-04-24 19:40:00,60.0,50.5,29.80,SSE,158,4.0,8.0,71,0.00,,,0.01,Weather View 32 v70,2013-04-24 23:40:00,
2013-04-24 19:45:00,60.0,51.3,29.79,West,270,2.0,8.0,73,0.00,,,0.01,Weather View 32 v70,2013-04-24 23:45:00,
2013-04-24 19:53:00,59.0,51.1,29.80,SW,225,2.0,8.0,75,0.00,,,0.01,Weather View 32 v70,2013-04-24 23:53:00,
2013-04-24 20:00:00,59.0,51.1,29.80,South,180,5.0,8.0,75,0.00,,,0.01,Weather View 32 v70,2013-04-25 00:00:00,
2013-04-24 20:05:00,59.0,51.1,29.80,South,180,8.0,10.0,75,0.00,,,0.01,Weather View 32 v70,2013-04-25 00:05:00,
2013-04-24 20:09:00,58.0,49.7,29.81,South,180,2.0,10.0,74,0.00,,,0.01,Weather View 32 v70,2013-04-25 00:09:00,
2013-04-24 20:14:00,58.0,50.1,29.81,SSE,158,4.0,10.0,75,0.00,,,0.01,Weather View 32 v70,2013-04-25 00:14:00,
2013-04-24 20:24:00,54.0,47.6,29.81,SSE,158,5.0,10.0,79,0.00,,,0.01,Weather View 32 v70,2013-04-25 00:24:00,
2013-04-24 20:35:00,53.0,48.3,29.81,SSW,202,2.0,10.0,84,0.00,,,0.01,Weather View 32 v70,2013-04-25 00:35:00,
2013-04-24 20:39:00,52.0,47.6,29.81,SE,135,6.0,10.0,85,0.00,,,0.01,Weather View 32 v70,2013-04-25 00:39:00,
2013-04-24 20:44:00,53.0,48.9,29.81,SSE,158,7.0,10.0,86,0.00,,,0.01,Weather View 32 v70,2013-04-25 00:44:00,
2013-04-24 20:54:00,54.0,50.2,29.81,South,180,8.0,11.0,87,0.00,,,0.01,Weather View 32 v70,2013-04-25 00:54:00,
2013-04-24 20:59:00,54.0,49.3,29.81,SE,135,4.0,11.0,84,0.00,,,0.01,Weather View 32 v70,2013-04-25 00:59:00,
2013-04-24 21:10:00,53.0,48.6,29.81,South,180,8.0,13.0,85,0.00,,,0.01,Weather View 32 v70,2013-04-25 01:10:00,
2013-04-24 21:19:00,53.0,48.6,29.81,South,180,7.0,13.0,85,0.00,,,0.01,Weather View 32 v70,2013-04-25 01:19:00,
2013-04-24 21:24:00,53.0,48.6,29.81,South,180,9.0,13.0,85,0.00,,,0.01,Weather View 32 v70,2013-04-25 01:24:00,
2013-04-24 21:35:00,52.0,47.9,29.81,SSW,202,11.0,13.0,86,0.00,,,0.01,Weather View 32 v70,2013-04-25 01:35:00,
2013-04-24 21:44:00,53.0,49.2,29.81,South,180,8.0,13.0,87,0.00,,,0.01,Weather View 32 v70,2013-04-25 01:44:00,
2013-04-24 21:49:00,52.0,48.2,29.81,South,180,10.0,13.0,87,0.00,,,0.01,Weather View 32 v70,2013-04-25 01:49:00,
2013-04-24 21:54:00,52.0,48.2,29.81,SSE,158,7.0,13.0,87,0.00,,,0.01,Weather View 32 v70,2013-04-25 01:54:00,
2013-04-24 21:59:00,54.0,50.2,29.82,South,180,3.0,13.0,87,0.00,,,0.01,Weather View 32 v70,2013-04-25 01:59:00,
2013-04-24 22:09:00,56.0,50.6,29.81,SSW,202,6.0,13.0,82,0.00,,,0.01,Weather View 32 v70,2013-04-25 02:09:00,
2013-04-24 22:15:00,56.0,49.9,29.81,South,180,8.0,13.0,80,0.00,,,0.01,Weather View 32 v70,2013-04-25 02:15:00,
2013-04-24 22:19:00,55.0,48.6,29.81,SSE,158,3.0,12.0,79,0.00,,,0.01,Weather View 32 v70,2013-04-25 02:19:00,
2013-04-24 22:29:00,53.0,47.3,29.81,South,180,3.0,12.0,81,0.00,,,0.01,Weather View 32 v70,2013-04-25 02:29:00,
2013-04-24 22:34:00,53.0,48.0,29.81,SSE,158,6.0,12.0,83,0.00,,,0.01,Weather View 32 v70,2013-04-25 02:34:00,
2013-04-24 22:44:00,54.0,48.9,29.81,SSE,158,3.0,12.0,83,0.00,,,0.01,Weather View 32 v70,2013-04-25 02:44:00,
2013-04-24 22:49:00,55.0,49.3,29.80,SSE,158,5.0,12.0,81,0.00,,,0.01,Weather View 32 v70,2013-04-25 02:49:00,
2013-04-24 22:55:00,56.0,49.6,29.80,SSW,202,3.0,12.0,79,0.00,,,0.01,Weather View 32 v70,2013-04-25 02:55:00,
2013-04-24 23:04:00,56.0,48.5,29.80,SSW,202,6.0,10.0,76,0.00,,,0.01,Weather View 32 v70,2013-04-25 03:04:00,
2013-04-24 23:10:00,56.0,48.2,29.79,SE,135,4.0,10.0,75,0.00,,,0.01,Weather View 32 v70,2013-04-25 03:10:00,
2013-04-24 23:15:00,57.0,48.8,29.79,South,180,2.0,11.0,74,0.00,,,0.01,Weather View 32 v70,2013-04-25 03:15:00,
2013-04-24 23:24:00,57.0,48.4,29.79,South,180,3.0,11.0,73,0.00,,,0.01,Weather View 32 v70,2013-04-25 03:24:00,
2013-04-24 23:34:00,57.0,47.7,29.78,SSE,158,5.0,17.0,71,0.00,,,0.01,Weather View 32 v70,2013-04-25 03:34:00,
2013-04-24 23:41:00,57.0,47.7,29.78,SSE,158,5.0,17.0,71,0.00,,,0.01,Weather View 32 v70,2013-04-25 03:41:00,
2013-04-24 23:49:00,57.0,47.7,29.78,WSW,248,7.0,17.0,71,0.00,,,0.01,Weather View 32 v70,2013-04-25 03:49:00,
2013-04-24 23:55:00,57.0,47.3,29.78,SSE,158,3.0,17.0,70,0.00,,,0.01,Weather View 32 v70,2013-04-25 03:55:00,
2013-04-24 23:59:00,57.0,47.3,29.78,SSW,202,7.0,17.0,70,0.00,,,0.00,Weather View 32 v70,2013-04-25 03:59:00,